Date,TemperatureHighF,TemperatureAvgF,TemperatureLowF,DewpointHighF,DewpointAvgF,DewpointLowF,HumidityHigh,HumidityAvg,HumidityLow,PressureMaxIn,PressureMinIn,WindSpeedMaxMPH,WindSpeedAvgMPH,GustSpeedMaxMPH,PrecipitationSumIn
2012-1-1,64.8,53.9,44.2,58.3,37.9,-99.9,97,79,67,30.18,29.87,23,4,23,0.01
2012-1-2,61.3,49.6,41.2,57.7,35.3,21.3,91,59,35,29.99,29.85,29,14,29,0.00
2012-1-3,41.4,35.7,30.5,29.7,22.5,15.3,78,59,43,30.25,29.85,38,24,38,0.00
2012-1-4,42.4,33.3,27.7,35.1,20.7,11.9,76,60,46,30.40,30.09,27,10,27,0.00
2012-1-5,48.9,44.5,40.8,40.2,33.6,26.6,79,66,53,30.10,29.97,24,7,24,0.00
2012-1-6,59.8,52.9,43.1,50.9,44.5,37.2,82,73,59,30.12,29.98,19,5,19,0.00
2012-1-7,61.3,55.8,52.1,54.0,49.2,45.1,90,79,60,30.03,29.93,19,6,19,0.00
2012-1-8,55.3,51.1,48.3,52.7,45.1,40.3,94,80,69,30.26,30.03,24,8,24,0.00
2012-1-9,49.6,48.3,46.8,47.7,46.0,43.3,97,92,81,30.24,30.01,19,8,19,0.36
2012-1-10,50.4,45.8,42.4,46.2,42.9,39.4,97,90,74,30.09,30.00,19,6,19,0.00
2012-1-11,63.9,54.8,45.7,61.1,32.9,-99.9,96,81,85,30.02,29.55,27,4,27,1.13
2012-1-12,61.3,53.6,51.9,58.3,31.6,-99.9,95,76,79,29.70,29.55,31,11,31,0.01
2012-1-13,60.9,42.3,41.6,31.8,24.1,-99.9,87,55,50,30.02,29.61,32,15,32,0.00
2012-1-14,44.7,41.2,36.6,31.8,28.7,25.6,70,61,51,30.19,30.00,28,12,28,0.00
2012-1-15,44.5,41.1,37.2,37.1,30.8,20.7,79,67,51,30.55,30.13,29,12,29,0.00
2012-1-16,50.5,40.9,35.8,47.1,32.2,23.3,90,71,57,30.60,30.35,16,4,16,0.00
2012-1-17,61.4,57.1,50.4,55.9,53.0,46.6,92,86,79,30.35,29.94,27,8,27,0.01
2012-1-18,59.3,50.6,42.7,55.8,45.1,31.6,95,82,65,30.07,29.83,29,14,29,0.46
2012-1-19,50.8,42.7,39.4,41.2,35.1,31.7,83,74,63,30.18,30.01,25,8,25,0.00
2012-1-20,50.5,48.9,47.3,47.4,44.3,40.6,91,84,74,30.19,30.08,17,5,17,0.00
2012-1-21,63.2,38.8,44.7,58.7,-24.5,-99.9,96,53,85,30.12,29.91,31,8,31,0.34
2012-1-22,48.1,45.6,42.9,46.6,44.2,41.6,96,95,93,30.28,30.08,29,16,29,0.01
2012-1-23,63.8,41.9,46.4,61.0,5.3,-99.9,98,75,94,30.23,30.05,15,4,16,0.00
2012-1-24,62.8,29.6,53.5,60.7,-69.0,-99.9,96,34,92,30.17,30.03,15,4,15,0.00
2012-1-25,53.4,37.9,48.0,51.7,-24.4,-99.9,97,57,89,30.29,30.17,21,6,21,0.02
2012-1-26,62.3,33.2,51.0,49.5,-51.5,-99.9,94,47,92,30.17,29.94,9,5,9,0.02
2012-1-27,62.3,3.2,56.2,-99.9,-99.9,-99.9,0,0,100,29.98,29.63,29,8,29,0.41
2012-1-28,59.3,14.1,49.2,47.5,-87.9,-99.9,88,14,75,30.12,29.97,16,4,16,0.00
2012-1-29,53.6,38.4,41.6,42.0,-33.1,-99.9,82,34,55,30.30,30.11,26,9,26,0.00
2012-1-30,52.4,45.9,41.7,38.3,7.0,-99.9,79,49,47,30.41,30.25,21,6,21,0.00
2012-1-31,61.1,53.3,45.0,48.2,44.0,37.6,79,71,52,30.42,30.29,18,4,18,0.00
2012-2-1,60.1,59.0,57.6,55.6,55.2,54.6,91,87,85,30.12,30.08,17,6,17,0.00
2012-2-2,60.4,31.1,50.5,57.4,-53.5,-99.9,94,33,79,30.24,29.96,24,7,24,0.12
2012-2-3,52.2,45.8,43.1,50.1,31.6,-99.9,93,73,70,30.45,30.24,25,10,25,0.00
2012-2-4,61.9,23.4,42.9,42.5,-41.1,-99.9,89,35,60,30.39,30.00,22,4,22,0.00
2012-2-5,61.5,36.5,45.3,52.7,-29.0,-99.9,96,48,84,30.18,29.95,27,12,27,0.44
2012-2-6,50.1,32.2,44.6,46.1,-36.1,-99.9,92,39,76,30.24,30.07,24,9,24,0.02
2012-2-7,50.5,17.7,47.1,46.5,-91.9,-99.9,96,8,76,30.15,30.04,18,10,21,0.07
2012-2-8,53.4,15.7,45.8,46.9,-91.9,-99.9,91,7,80,30.14,29.96,23,12,26,0.01
2012-2-9,45.8,42.7,37.4,42.4,36.1,32.3,91,78,65,30.24,30.08,26,10,26,0.00
2012-2-10,50.6,47.0,41.1,47.6,39.4,30.3,94,75,60,30.24,29.86,18,4,18,0.16
2012-2-11,48.6,48.5,48.5,47.1,47.0,46.8,95,94,94,29.86,29.85,13,7,13,0.00
2012-2-12,40.9,36.3,29.1,28.1,19.3,13.5,62,50,42,30.17,30.06,34,18,34,0.00
2012-2-13,44.7,40.1,35.5,35.8,26.3,19.6,72,58,42,30.26,30.15,31,9,31,0.00
2012-2-14,54.1,48.4,43.2,48.5,42.1,35.6,87,79,68,30.17,30.04,12,2,12,0.04
2012-2-15,50.7,49.4,45.2,45.1,44.3,41.3,86,83,80,30.27,30.06,5,1,5,0.00
2012-2-16,62.9,31.3,44.1,57.7,-19.8,-99.9,96,52,80,30.29,29.92,21,5,21,0.06
2012-2-17,52.7,38.6,46.3,50.4,-11.6,-99.9,98,62,81,30.09,29.92,24,9,24,0.00
2012-2-18,54.9,19.7,47.1,48.7,-73.7,-99.9,90,23,71,30.13,29.95,17,4,17,0.00
2012-2-19,56.9,23.5,47.7,51.0,-68.7,-99.9,96,32,90,29.98,29.54,41,15,41,0.84
2012-2-20,47.7,41.4,39.8,45.5,25.3,-99.9,97,76,63,30.33,29.63,40,19,40,0.02
2012-2-21,60.0,15.6,42.6,45.6,-59.9,-99.9,88,25,81,30.33,29.99,22,8,22,0.00
2012-2-22,61.7,2.0,52.0,-99.9,-99.9,-99.9,92,2,84,29.99,29.62,21,7,21,0.00
2012-2-23,62.3,0.8,55.6,-99.9,-99.9,-99.9,93,1,91,29.72,29.58,28,8,28,0.00
2012-2-24,70.9,0.2,64.4,-99.9,-99.9,-99.9,77,0,77,29.71,29.59,32,10,32,0.25
2012-2-25,53.1,20.3,45.4,33.7,-48.1,-99.9,53,18,37,30.28,29.68,35,19,35,0.01
2012-2-26,46.9,42.9,40.0,36.5,28.9,21.3,77,58,43,30.49,30.27,33,8,33,0.00
2012-2-27,65.6,54.6,43.1,56.4,48.6,35.7,94,81,61,30.46,30.27,17,3,17,0.01
2012-2-28,59.8,52.7,49.8,57.4,48.0,41.5,96,84,65,30.40,30.26,25,10,25,0.00
2012-2-29,69.9,62.3,52.0,63.8,59.3,49.5,96,90,81,30.31,29.88,24,6,24,0.00
2012-3-1,70.7,65.6,62.5,64.2,62.0,60.1,95,88,77,29.88,29.69,29,10,29,0.00
2012-3-2,67.2,62.3,56.3,65.4,59.6,53.1,97,91,81,29.98,29.76,25,7,25,0.00
2012-3-3,67.5,64.3,59.8,65.4,61.6,57.8,96,91,84,29.77,29.66,28,8,28,0.34
2012-3-4,59.8,49.5,45.3,58.7,44.3,29.8,96,83,49,30.01,29.55,35,15,35,1.50
2012-3-5,59.9,50.3,44.3,46.2,35.5,28.1,72,57,45,30.45,29.92,40,16,40,0.00
2012-3-6,46.7,44.0,41.4,42.5,33.2,27.1,86,66,54,30.68,30.44,25,10,25,0.00
2012-3-7,61.6,54.2,46.7,54.2,49.0,42.4,88,83,69,30.65,30.48,13,5,13,0.00
2012-3-8,70.4,63.7,56.4,60.2,57.2,53.5,92,80,63,30.48,30.16,21,4,21,0.00
2012-3-9,63.7,58.0,49.6,61.4,53.6,38.3,96,86,63,30.26,30.06,31,8,31,0.16
2012-3-10,50.9,47.8,43.7,43.8,37.3,27.2,79,67,49,30.53,30.25,28,12,28,0.00
2012-3-11,53.7,50.2,44.9,46.4,40.7,28.0,84,70,50,30.57,30.44,16,6,18,0.00
2012-3-12,52.7,51.4,49.9,49.4,47.8,46.3,92,88,82,30.45,30.41,2,0,2,0.00
2012-3-13,66.8,63.3,60.2,60.2,58.4,55.8,91,84,78,30.28,30.14,19,5,19,0.00
2012-3-14,70.0,64.0,61.1,62.4,60.1,58.5,96,87,73,30.23,30.14,15,3,15,0.00
2012-3-15,72.2,65.2,59.4,63.4,61.4,58.3,98,88,71,30.27,30.20,15,3,15,0.02
2012-3-16,71.0,66.5,62.8,65.7,63.4,61.3,96,90,80,30.24,30.13,19,4,19,0.00
2012-3-17,69.3,63.5,58.2,64.3,61.6,57.4,98,94,80,30.24,30.11,20,7,20,0.01
2012-3-18,65.5,61.1,58.4,62.7,59.9,57.8,100,96,89,30.27,30.16,17,7,17,0.00
2012-3-19,70.4,62.7,58.4,64.4,60.9,57.8,100,94,77,30.20,30.10,11,3,11,0.01
2012-3-20,73.5,66.0,60.1,66.6,61.9,-99.9,98,88,73,30.23,30.13,16,-4,16,0.01
2012-3-21,71.1,67.5,63.2,65.8,63.8,60.5,94,88,80,30.31,30.19,19,3,19,0.00
2012-3-22,72.2,67.1,63.9,65.3,63.9,62.1,96,89,77,30.29,30.16,16,3,16,0.21
2012-3-23,73.8,68.6,63.7,67.2,65.0,62.4,97,89,76,30.16,29.99,16,4,16,0.01
2012-3-24,73.3,70.3,67.1,68.5,67.0,64.3,95,89,84,30.00,29.82,18,4,18,0.04
2012-3-25,72.4,68.8,64.3,66.6,64.4,59.1,95,86,73,29.69,29.60,25,6,25,1.06
2012-3-26,69.8,64.5,60.2,58.2,54.4,45.1,92,71,51,29.93,29.73,33,17,33,0.23
2012-3-27,54.6,49.7,47.0,41.6,37.3,33.2,76,63,51,30.31,30.10,28,9,28,0.00
2012-3-28,68.0,64.7,47.0,63.3,57.5,39.1,89,78,66,30.30,29.83,31,11,31,0.00
2012-3-29,73.9,66.6,60.0,62.5,58.4,48.3,88,76,52,29.92,29.75,23,10,23,0.00
2012-3-30,67.5,64.8,61.4,64.5,57.7,52.3,93,78,69,30.02,29.89,20,8,20,0.00
2012-3-31,68.6,65.5,57.1,65.1,63.2,55.4,96,92,84,29.83,29.65,26,6,26,0.92
2012-4-1,60.7,56.1,54.1,57.0,52.0,48.8,95,86,77,29.87,29.70,32,10,32,0.20
2012-4-2,64.7,60.4,55.4,61.1,53.2,43.8,92,78,56,29.94,29.55,31,13,31,0.09
2012-4-3,63.7,58.4,51.1,57.8,48.1,39.9,85,69,48,30.02,29.86,19,6,19,0.00
2012-4-4,70.6,66.7,63.4,65.1,62.9,57.8,94,88,76,29.87,29.59,23,6,23,0.01
2012-4-5,67.8,59.2,54.1,65.2,54.2,48.0,96,84,73,29.79,29.59,33,14,33,0.01
2012-4-6,56.9,52.9,50.9,51.7,47.1,41.3,92,81,67,30.01,29.70,38,20,38,0.99
2012-4-7,58.6,54.1,51.6,48.9,40.5,29.6,76,61,39,30.18,30.00,25,9,25,0.00
2012-4-8,65.0,59.8,55.4,60.2,49.5,31.9,91,70,33,30.13,29.89,21,7,21,0.00
2012-4-9,66.7,62.8,59.1,60.4,50.0,36.1,91,65,39,30.01,29.87,19,8,19,0.00
2012-4-10,67.3,63.6,58.0,58.7,53.9,45.8,86,71,49,29.94,29.73,26,8,26,0.00
2012-4-11,66.0,56.1,52.9,57.1,41.1,33.0,78,58,45,30.05,29.73,28,11,28,0.02
2012-4-12,57.9,52.4,48.5,43.0,39.2,31.6,74,61,45,30.16,30.03,28,12,28,0.00
2012-4-13,63.7,55.6,46.7,47.3,42.6,37.3,88,63,39,30.28,30.14,14,3,14,0.00
2012-4-14,68.3,61.6,51.8,59.8,49.5,40.5,85,66,38,30.36,30.21,19,4,19,0.00
2012-4-15,71.3,67.4,63.4,63.0,61.2,58.5,87,81,73,30.24,30.16,26,9,26,0.00
2012-4-16,73.1,68.9,65.5,65.4,63.4,62.1,90,83,71,30.22,30.10,25,8,25,0.00
2012-4-17,76.5,70.1,66.8,67.8,63.0,56.4,87,79,58,30.14,30.07,21,7,21,0.00
2012-4-18,69.0,65.6,62.7,61.9,59.1,52.1,92,80,57,30.12,30.01,21,7,21,0.00
2012-4-19,64.1,62.2,58.8,62.2,59.6,55.6,96,91,86,30.03,29.95,20,9,20,0.23
2012-4-20,67.8,61.8,58.5,63.5,58.8,54.7,96,90,85,30.00,29.86,15,4,15,0.00
2012-4-21,75.8,69.4,61.5,69.0,65.6,60.3,97,88,76,29.87,29.72,19,3,19,0.01
2012-4-22,69.9,65.2,55.8,67.5,63.0,52.4,97,93,86,29.73,29.29,29,8,29,2.57
2012-4-23,59.6,55.3,51.4,53.3,47.7,41.5,95,76,56,29.69,29.39,32,16,32,0.07
2012-4-24,64.1,58.6,52.4,46.1,40.1,31.2,75,52,31,29.75,29.66,26,11,26,0.00
2012-4-25,66.5,62.7,59.3,56.7,51.8,46.9,83,68,58,29.97,29.88,21,7,21,0.00
2012-4-26,72.1,68.0,59.0,65.4,62.8,54.8,95,84,75,29.96,29.70,33,10,33,0.05
2012-4-27,72.1,65.7,61.7,65.1,58.5,50.9,87,78,65,30.10,29.80,33,9,33,0.06
2012-4-28,68.3,64.2,60.8,66.6,61.1,55.7,97,90,78,30.16,30.04,23,8,23,0.09
2012-4-29,61.1,59.5,57.2,59.1,56.4,53.9,94,89,82,30.22,30.08,20,8,20,0.00
2012-4-30,73.2,65.8,57.7,65.9,59.9,53.9,91,82,67,30.26,30.17,18,6,18,0.00
2012-5-1,76.0,72.4,70.2,69.8,67.8,65.7,93,86,79,30.18,30.06,23,7,23,0.00
2012-5-2,75.3,72.5,70.1,70.5,69.1,67.9,95,89,83,30.12,30.03,20,8,20,0.00
2012-5-3,78.7,74.8,71.3,70.8,69.7,68.7,93,84,75,30.12,30.02,11,4,13,0.00
2012-5-4,80.9,74.8,71.5,72.3,70.3,68.9,93,86,73,30.03,29.89,15,6,15,0.00
2012-5-5,81.5,75.1,71.7,73.1,71.0,69.6,94,87,73,29.89,29.76,15,4,15,0.00
2012-5-6,73.8,69.3,66.1,70.7,66.5,63.1,92,91,88,29.99,29.83,32,17,32,0.02
2012-5-7,71.1,68.8,67.2,66.8,61.4,54.0,92,78,62,30.05,29.95,23,10,23,0.00
2012-5-8,75.7,71.2,64.8,66.1,60.1,54.9,83,68,58,30.03,29.90,16,4,16,0.00
2012-5-9,78.2,73.8,69.8,71.3,68.8,65.4,92,84,75,29.90,29.58,24,5,24,0.02
2012-5-10,73.2,68.3,64.2,67.1,59.0,50.6,91,73,48,29.91,29.57,30,10,30,0.00
2012-5-11,69.4,66.2,62.4,60.3,54.1,48.6,81,66,51,30.23,29.91,21,5,21,0.00
2012-5-12,73.5,70.1,62.4,57.8,48.4,39.2,77,48,31,30.33,30.23,11,2,11,0.00
2012-5-13,75.4,71.1,66.2,59.6,55.9,50.6,71,59,51,30.28,30.16,22,5,22,0.00
2012-5-14,77.3,72.9,70.5,68.2,62.7,56.7,85,71,60,30.16,30.01,24,7,24,0.00
2012-5-15,78.4,73.2,68.5,73.4,70.1,65.4,96,90,78,30.02,29.95,25,7,25,2.45
2012-5-16,76.4,73.0,68.5,72.4,70.2,64.9,95,91,79,29.98,29.88,23,4,23,0.44
2012-5-17,74.0,71.0,66.9,70.6,67.6,62.8,95,89,72,29.95,29.87,23,5,23,1.01
2012-5-18,68.5,66.6,63.8,64.2,61.8,59.8,90,85,80,30.01,29.94,32,19,32,0.12
2012-5-19,70.0,67.0,63.5,62.7,56.3,41.3,91,71,38,30.06,29.96,28,15,28,0.00
2012-5-20,68.5,66.1,63.9,64.9,62.2,51.0,95,88,56,30.04,29.96,17,7,18,0.00
2012-5-21,72.2,68.5,65.0,69.1,66.2,63.5,96,92,88,30.01,29.88,15,4,15,0.00
2012-5-22,78.5,71.5,67.0,70.6,67.7,62.6,96,88,70,29.88,29.81,23,3,23,0.04
2012-5-23,78.3,73.3,65.0,71.7,68.9,62.9,96,86,71,29.98,29.81,51,4,51,0.51
2012-5-24,80.3,75.2,70.3,73.8,71.0,67.6,94,87,75,30.05,29.96,22,5,22,0.01
2012-5-25,78.2,74.8,71.7,72.3,70.8,69.0,95,88,78,30.09,30.01,15,7,22,0.02
2012-5-26,79.3,75.9,71.9,72.0,70.9,69.8,96,85,76,30.08,30.00,16,11,27,0.01
2012-5-27,80.5,76.7,73.2,74.9,72.8,70.9,94,88,81,30.11,30.02,9,5,19,0.04
2012-5-28,81.3,77.6,73.6,75.0,73.2,71.0,93,86,79,30.10,30.01,9,5,20,0.00
2012-5-29,82.5,77.8,74.3,75.6,74.3,71.5,94,89,77,30.03,29.86,23,5,23,0.28
2012-5-30,78.8,75.2,71.5,74.6,72.3,67.5,97,91,83,29.88,29.43,45,12,45,2.59
2012-5-31,83.5,77.4,72.4,74.3,71.2,67.9,92,82,67,29.90,29.72,21,7,23,0.00
2012-6-1,80.9,78.0,74.5,76.8,73.8,71.2,94,87,74,29.91,29.77,27,6,27,0.09
2012-6-2,77.0,73.8,69.9,68.6,64.9,60.3,91,74,63,29.83,29.75,20,6,20,0.74
2012-6-3,78.3,74.1,70.9,66.2,57.8,51.1,78,57,46,29.89,29.79,19,10,19,0.00
2012-6-4,79.8,77.0,72.1,68.9,65.4,60.6,81,68,53,29.70,29.59,25,8,25,0.00
2012-6-5,72.2,68.0,65.6,62.7,59.3,55.3,80,74,68,29.89,29.65,24,9,24,0.00
2012-6-6,69.8,67.7,65.2,62.1,59.3,55.5,83,75,70,29.97,29.86,23,10,23,0.00
2012-6-7,72.6,69.0,65.4,62.8,58.7,50.3,86,71,49,30.01,29.94,20,8,20,0.00
2012-6-8,78.0,72.6,63.5,66.8,63.6,58.6,87,73,59,30.02,29.95,14,4,14,0.00
2012-6-9,81.8,75.8,72.4,70.9,67.7,63.3,85,76,55,30.07,29.98,19,6,19,0.00
2012-6-10,80.0,76.4,74.1,71.2,69.6,66.8,88,80,66,30.16,30.05,19,8,19,0.00
2012-6-11,80.7,77.2,74.0,71.1,68.8,67.0,87,76,67,30.17,30.10,16,4,16,0.00
2012-6-12,79.6,76.7,73.8,72.7,70.6,68.1,92,82,75,30.10,29.89,22,6,22,0.01
2012-6-13,77.7,75.7,72.6,73.6,71.3,62.6,96,87,64,29.92,29.80,17,8,22,0.49
2012-6-14,74.9,72.3,70.1,68.3,66.2,63.3,90,81,70,30.08,29.91,33,18,33,0.00
2012-6-15,72.6,70.4,69.0,67.0,65.0,62.8,87,83,79,30.15,30.03,32,18,32,0.00
2012-6-16,71.2,70.1,69.0,66.1,63.8,57.9,88,81,64,30.19,30.10,29,16,29,0.00
2012-6-17,71.8,69.9,67.7,64.6,63.7,62.8,87,81,75,30.07,30.01,21,11,21,0.00
2012-6-18,75.7,70.7,66.2,67.2,64.1,59.6,92,80,61,30.11,30.02,13,4,14,0.00
2012-6-19,80.8,75.8,70.9,71.7,68.6,64.9,88,79,65,30.16,30.10,15,3,15,0.00
2012-6-20,81.4,77.9,75.1,74.3,72.1,68.4,90,83,73,30.14,30.04,17,6,17,0.00
2012-6-21,82.2,78.5,76.0,76.6,73.5,70.0,91,85,76,30.05,29.88,21,8,21,0.00
2012-6-22,81.4,78.9,76.5,75.7,72.7,68.5,90,82,72,29.93,29.80,27,9,27,0.00
2012-6-23,82.2,77.7,72.6,76.0,72.9,68.0,93,85,78,29.99,29.84,30,7,30,0.44
2012-6-24,81.8,78.5,75.2,74.8,73.0,70.6,91,84,72,30.00,29.91,12,2,12,0.00
2012-6-25,81.9,77.9,70.0,76.6,74.1,66.0,96,88,76,29.91,29.67,29,6,29,1.45
2012-6-26,76.8,73.4,71.8,72.6,63.6,56.6,93,72,57,29.85,29.68,28,11,28,0.08
2012-6-27,80.0,73.8,67.4,63.4,59.8,53.1,76,62,43,29.93,29.80,14,4,14,0.00
2012-6-28,84.8,78.0,68.9,71.4,67.7,60.7,84,71,52,29.97,29.87,21,6,21,0.00
2012-6-29,82.2,79.5,77.3,77.1,74.7,69.7,93,85,75,29.88,29.74,26,9,26,0.00
2012-6-30,85.5,81.1,78.2,78.6,76.2,73.0,96,86,70,29.87,29.74,22,5,22,0.00
2012-7-1,88.6,80.2,71.9,80.3,75.8,60.7,96,87,42,30.03,29.82,51,9,51,0.67
2012-7-2,84.7,80.6,76.0,78.3,73.6,70.1,92,80,74,29.96,29.89,26,7,26,0.00
2012-7-3,86.3,81.0,74.7,78.5,73.6,68.8,91,79,58,29.99,29.93,17,3,17,0.00
2012-7-4,87.3,82.0,79.5,80.7,78.1,75.8,93,88,79,29.95,29.86,22,9,22,0.00
2012-7-5,86.8,82.6,80.0,80.1,78.0,76.5,93,86,78,29.91,29.82,24,9,24,0.00
2012-7-6,84.8,82.1,79.6,80.6,78.9,77.2,96,90,83,29.93,29.84,22,7,22,0.00
2012-7-7,85.8,82.8,80.3,80.5,79.2,78.1,94,89,83,29.97,29.89,23,8,23,0.00
2012-7-8,86.0,83.2,81.0,80.4,78.8,76.2,92,87,80,29.95,29.83,24,9,24,0.00
2012-7-9,87.0,82.6,80.1,80.9,79.0,77.2,94,89,79,29.93,29.83,25,8,25,0.00
2012-7-10,84.7,79.9,72.6,79.1,76.2,71.2,96,89,76,30.00,29.88,33,9,33,1.30
2012-7-11,80.9,77.8,72.6,76.2,74.1,70.7,96,89,83,30.09,29.96,16,5,16,0.62
2012-7-12,82.7,77.8,72.9,75.5,73.8,71.6,97,88,76,30.13,30.04,18,4,18,0.91
2012-7-13,84.1,79.7,76.0,78.0,75.4,73.9,95,87,76,30.17,30.11,13,2,13,0.00
2012-7-14,85.6,81.5,77.0,76.9,75.5,73.5,93,82,71,30.21,30.14,16,2,16,0.00
2012-7-15,85.7,81.8,77.8,77.3,75.8,74.5,92,82,72,30.18,30.07,19,4,19,0.00
2012-7-16,84.7,81.7,78.0,77.7,75.7,72.7,88,82,73,30.08,29.89,26,9,27,0.03
2012-7-17,85.9,82.2,77.9,79.3,77.3,73.2,91,85,78,29.96,29.88,20,8,20,0.00
2012-7-18,84.5,81.4,79.1,78.6,77.3,76.0,91,87,80,30.01,29.91,24,8,24,0.00
2012-7-19,84.7,81.6,79.1,79.5,77.5,75.9,92,87,81,30.02,29.93,28,10,28,0.00
2012-7-20,83.5,80.5,74.8,78.8,76.7,71.7,92,88,83,29.96,29.88,29,10,29,0.04
2012-7-21,83.0,78.5,74.7,78.2,75.4,71.6,96,90,80,30.10,29.92,26,7,26,1.05
2012-7-22,84.3,79.2,73.9,78.4,75.6,70.7,95,89,77,30.15,30.03,22,3,22,0.23
2012-7-23,84.8,79.6,73.5,79.8,76.8,69.4,96,91,80,30.19,29.98,30,6,30,0.29
2012-7-24,85.7,81.0,76.9,81.4,76.2,72.2,92,85,75,29.99,29.69,33,11,33,0.29
2012-7-25,82.5,79.7,75.3,76.2,73.3,69.2,90,81,67,29.94,29.75,26,10,26,0.00
2012-7-26,85.0,80.5,75.1,80.7,77.1,72.0,95,90,82,29.93,29.79,22,6,22,0.26
2012-7-27,85.5,82.1,79.0,81.9,79.4,76.1,95,92,81,29.93,29.81,22,8,22,0.00
2012-7-28,88.3,81.8,76.9,80.6,77.2,70.5,95,86,72,29.96,29.84,26,6,26,0.36
2012-7-29,84.8,80.9,77.0,78.7,74.6,71.2,91,82,72,29.98,29.87,23,4,23,0.00
2012-7-30,82.5,78.9,74.4,76.7,74.4,71.3,94,86,74,30.01,29.93,21,4,21,0.02
2012-7-31,82.5,78.3,74.2,76.6,74.7,72.5,95,89,77,29.98,29.88,17,3,17,0.37
2012-8-1,80.6,77.0,70.8,77.1,74.0,68.7,96,91,83,29.92,29.83,24,3,24,2.32
2012-8-2,84.3,79.1,73.6,76.7,74.5,72.4,97,86,71,29.96,29.85,12,2,12,0.01
2012-8-3,85.8,81.5,76.2,78.3,76.8,74.7,96,86,75,30.09,29.96,14,3,14,0.00
2012-8-4,86.0,82.1,78.2,78.2,76.4,72.4,94,83,67,30.21,30.06,14,3,14,0.00
2012-8-5,87.0,83.2,79.7,78.7,77.1,72.2,91,82,68,30.22,30.11,18,4,18,0.00
2012-8-6,84.8,81.7,76.2,78.9,76.8,72.0,92,85,76,30.13,30.00,26,6,26,0.18
2012-8-7,83.8,79.8,75.9,77.6,76.0,72.5,95,88,78,30.04,29.96,23,4,23,1.69
2012-8-8,79.3,77.5,73.2,77.3,74.8,71.7,96,91,85,30.02,29.93,16,4,16,1.45
2012-8-9,84.9,80.6,76.0,77.8,75.9,73.8,94,86,73,29.98,29.89,14,4,14,0.00
2012-8-10,84.2,80.7,73.9,79.2,77.1,71.7,95,89,78,29.92,29.84,32,9,32,0.89
2012-8-11,82.1,79.1,72.5,78.3,75.7,71.0,96,89,82,30.01,29.88,25,8,25,0.93
2012-8-12,82.3,79.1,74.6,76.6,74.9,72.4,94,87,77,30.00,29.92,17,5,17,0.14
2012-8-13,84.3,80.3,76.0,78.4,76.7,74.8,96,89,78,30.02,29.93,17,3,17,0.00
2012-8-14,86.0,81.6,78.9,77.8,76.4,71.5,94,85,65,29.96,29.87,17,5,17,0.00
2012-8-15,85.4,79.6,73.3,79.8,75.6,67.7,94,88,75,29.92,29.84,28,6,28,1.11
2012-8-16,85.0,79.9,76.9,76.4,73.6,69.4,91,82,63,29.96,29.87,14,4,14,0.00
2012-8-17,84.2,80.3,76.2,77.9,75.3,70.0,94,85,68,29.97,29.82,17,3,17,0.02
2012-8-18,84.3,79.8,72.5,77.9,74.9,69.7,94,85,74,29.87,29.79,21,5,21,0.18
2012-8-19,85.1,77.9,74.4,78.1,75.0,72.4,96,91,78,29.88,29.79,26,4,26,0.65
2012-8-20,79.7,77.1,73.1,74.9,73.0,69.7,94,87,76,29.93,29.80,21,6,21,0.27
2012-8-21,78.5,76.1,74.4,74.5,72.1,69.1,94,87,79,30.04,29.93,12,3,12,0.24
2012-8-22,79.5,73.2,74.8,74.7,64.3,-99.9,95,83,79,30.06,29.99,17,-46,17,0.16
2012-8-23,78.9,77.2,72.3,75.0,73.6,70.2,96,89,85,30.08,30.01,22,7,22,1.83
2012-8-24,79.5,76.1,71.5,74.9,73.1,68.1,96,91,80,30.07,29.99,34,7,34,1.80
2012-8-25,81.2,78.8,75.5,75.8,73.9,72.4,92,85,79,30.09,30.01,14,4,14,0.67
2012-8-26,85.3,78.8,73.8,78.3,75.0,71.6,95,89,75,30.14,30.07,16,2,16,0.12
2012-8-27,85.7,80.8,74.9,79.4,76.4,71.2,94,87,78,30.11,30.01,21,4,21,0.03
2012-8-28,83.5,79.5,76.6,79.5,76.8,74.2,94,91,84,30.02,29.89,24,6,24,0.12
2012-8-29,82.4,78.6,75.9,76.0,74.3,71.5,94,87,75,30.00,29.86,21,7,21,0.02
2012-8-30,84.8,79.7,76.1,75.2,73.1,70.6,92,81,65,30.14,29.97,14,3,14,0.00
2012-8-31,83.3,80.9,77.9,76.7,75.6,73.7,90,84,77,30.19,30.06,20,7,20,0.00
2012-9-1,85.9,81.4,78.8,80.1,77.9,75.5,95,89,80,30.10,29.97,18,6,18,0.00
2012-9-2,87.0,82.1,78.8,81.6,78.8,75.4,97,90,75,30.00,29.94,15,3,15,0.00
2012-9-3,84.5,79.9,78.3,80.4,76.4,71.6,96,89,76,30.06,29.97,20,2,20,0.02
2012-9-4,84.6,81.0,77.8,77.8,76.4,74.2,94,86,77,30.04,29.94,15,4,15,0.02
2012-9-5,84.5,81.1,78.4,77.8,75.9,73.7,90,84,76,29.97,29.87,21,6,21,0.04
2012-9-6,85.2,81.2,75.3,78.3,76.6,72.8,95,86,76,29.94,29.86,28,7,28,0.03
2012-9-7,83.8,79.7,76.2,78.1,75.4,71.8,94,87,78,29.94,29.85,19,3,19,0.22
2012-9-8,85.3,81.3,77.1,79.4,76.8,73.4,92,87,79,29.86,29.73,24,6,24,0.02
2012-9-9,81.8,76.1,73.3,78.0,71.0,61.8,92,85,65,29.89,29.73,24,11,24,0.03
2012-9-10,76.7,74.0,71.3,65.1,61.8,56.2,79,66,53,30.11,29.88,24,13,24,0.00
2012-9-11,74.3,72.5,70.2,61.6,57.9,53.4,70,60,50,30.26,30.11,19,9,19,0.00
2012-9-12,75.2,72.6,67.2,65.6,63.1,56.6,82,72,61,30.30,30.22,19,7,19,0.00
2012-9-13,79.0,75.6,72.5,72.4,69.8,65.2,88,82,73,30.27,30.18,20,9,20,0.00
2012-9-14,75.8,73.3,70.6,72.2,70.5,68.3,96,91,86,30.20,30.10,18,4,18,1.43
2012-9-15,78.7,74.6,71.7,71.6,68.0,58.2,92,81,60,30.12,30.05,19,6,19,0.00
2012-9-16,75.4,72.6,71.0,63.4,61.7,58.9,75,69,59,30.13,30.06,15,4,15,0.00
2012-9-17,80.3,74.7,68.0,72.7,68.5,60.8,92,81,71,30.09,30.00,22,4,22,0.32
2012-9-18,84.3,78.7,74.1,76.2,73.4,69.8,95,84,73,30.00,29.78,31,9,31,0.78
2012-9-19,78.1,74.7,72.5,75.6,69.6,64.2,93,84,75,30.04,29.81,27,12,27,0.00
2012-9-20,74.1,72.0,69.6,67.5,66.1,63.9,91,82,75,30.08,30.00,25,12,25,0.03
2012-9-21,74.0,71.2,69.0,66.5,63.9,61.3,88,78,65,30.06,29.99,16,6,16,0.00
2012-9-22,79.3,75.8,71.1,70.5,67.7,65.3,86,76,66,30.02,29.93,18,4,18,0.00
2012-9-23,75.5,72.4,68.3,72.0,65.5,56.9,90,79,69,30.08,29.92,26,11,26,0.00
2012-9-24,70.3,67.9,63.8,59.8,54.3,49.5,75,62,49,30.18,30.05,22,10,22,0.00
2012-9-25,73.8,69.2,63.5,64.8,57.6,51.2,82,67,57,30.24,30.16,14,4,14,0.00
2012-9-26,77.7,71.2,64.9,66.5,63.1,57.1,93,76,57,30.22,30.14,10,1,10,0.00
2012-9-27,77.7,72.7,68.2,69.9,68.4,65.2,96,86,73,30.18,30.08,11,2,11,0.00
2012-9-28,79.5,73.8,68.4,71.0,68.0,62.0,96,83,61,30.09,29.97,12,2,12,0.01
2012-9-29,75.7,72.4,67.3,72.2,69.3,65.7,96,90,83,29.98,29.84,24,5,24,0.83
2012-9-30,70.8,69.3,67.6,68.1,64.8,62.4,95,86,77,29.89,29.82,20,5,20,0.08
2012-10-1,78.1,72.0,66.5,75.4,69.0,63.4,96,90,85,29.91,29.83,15,4,15,0.09
2012-10-2,79.0,77.1,75.4,77.3,75.6,73.5,97,95,91,30.00,29.84,25,4,25,0.47
2012-10-3,82.8,78.5,76.1,78.0,76.2,74.9,97,93,82,30.15,30.00,15,4,15,0.02
2012-10-4,80.9,77.2,75.8,76.4,73.9,70.1,97,90,73,30.19,30.10,19,5,19,0.01
2012-10-5,77.2,74.2,69.4,70.5,67.4,62.4,87,79,62,30.12,30.00,17,6,17,0.00
2012-10-6,79.8,73.8,66.1,69.6,66.7,63.1,92,79,63,30.01,29.86,15,3,15,0.00
2012-10-7,79.8,74.6,64.4,72.7,69.5,61.8,95,84,76,30.06,29.91,26,6,26,0.00
2012-10-8,71.7,67.8,63.6,68.7,64.6,60.9,95,90,84,30.14,29.98,27,12,27,0.15
2012-10-9,70.2,66.7,63.9,68.3,65.1,62.7,97,95,92,30.03,29.95,21,10,21,0.01
2012-10-10,68.9,64.7,62.0,63.0,58.8,54.9,95,82,67,30.04,29.93,18,7,18,0.00
2012-10-11,68.8,63.6,57.9,60.4,54.6,51.7,84,73,64,30.23,30.03,26,10,26,0.00
2012-10-12,70.0,64.6,56.7,60.0,54.1,51.8,86,69,59,30.28,30.10,25,7,25,0.00
2012-10-13,65.9,64.1,61.7,60.7,54.5,49.5,86,71,64,30.40,30.27,28,11,28,0.00
2012-10-14,76.3,70.0,64.2,67.1,62.9,58.3,93,79,57,30.31,30.05,12,2,12,0.00
2012-10-15,76.4,70.9,65.4,70.4,67.2,63.6,95,88,69,30.05,29.69,16,2,16,0.01
2012-10-16,64.8,62.4,59.2,54.7,52.6,49.1,77,70,62,29.91,29.83,28,9,28,0.01
2012-10-17,65.3,61.5,55.9,57.1,54.0,51.0,87,76,68,30.00,29.90,13,3,13,0.00
2012-10-18,76.0,72.7,66.7,71.0,65.3,56.7,95,78,55,29.93,29.82,15,3,15,0.40
2012-10-19,78.7,75.7,71.0,73.1,70.9,67.4,97,85,79,29.79,29.69,13,4,13,0.00
2012-10-20,74.9,71.4,67.5,59.7,54.9,48.1,74,57,40,29.84,29.75,20,7,20,0.00
2012-10-21,66.2,63.9,60.6,57.5,54.0,51.4,84,70,63,30.10,29.99,21,9,21,0.00
2012-10-22,66.6,63.2,57.9,54.4,51.0,46.9,83,65,55,30.19,30.10,14,5,14,0.00
2012-10-23,71.5,66.4,63.1,58.4,56.1,49.4,84,70,46,30.18,30.09,10,2,10,0.00
2012-10-24,76.2,70.4,65.1,66.7,64.2,61.5,89,81,67,30.17,30.08,10,2,10,0.00
2012-10-25,73.4,69.4,65.6,67.4,65.8,63.5,96,88,75,30.15,30.07,13,3,13,0.01
2012-10-26,72.7,70.2,68.2,69.2,68.2,67.0,97,93,83,30.00,29.84,28,11,28,0.27
2012-10-27,72.5,68.5,66.1,67.7,66.2,64.6,96,92,84,29.84,29.41,47,22,47,2.43
2012-10-28,66.3,64.0,58.9,65.1,62.2,56.9,97,94,90,29.42,29.22,50,32,50,3.02
2012-10-29,59.4,55.6,50.4,57.4,51.8,44.8,95,87,77,29.31,29.23,46,25,46,0.09
2012-10-30,57.4,52.7,49.9,46.3,43.5,40.4,84,71,60,29.60,29.31,36,15,36,0.00
2012-10-31,57.6,54.1,50.7,46.6,43.5,40.2,77,67,59,29.74,29.60,25,11,25,0.00
2012-11-1,58.6,55.1,52.0,46.4,43.8,40.7,71,66,57,29.80,29.69,26,11,26,0.00
2012-11-2,62.1,56.2,52.1,51.2,43.6,36.9,74,63,45,29.92,29.76,25,10,25,0.00
2012-11-3,55.8,52.1,47.8,44.6,41.0,37.3,78,66,54,30.06,29.91,20,7,20,0.00
2012-11-4,60.1,52.7,46.6,51.5,47.0,41.1,90,81,70,30.06,29.86,28,8,28,0.03
2012-11-5,53.9,50.8,48.8,50.1,43.7,39.6,90,77,62,30.08,29.91,24,13,24,0.02
2012-11-6,53.5,51.5,47.1,51.2,46.4,41.5,95,83,72,30.06,29.75,28,14,28,0.35
2012-11-7,49.7,47.9,45.7,47.9,45.3,41.1,96,91,84,29.84,29.71,29,18,29,0.03
2012-11-8,55.0,49.2,43.8,44.4,40.5,34.5,89,72,58,30.01,29.83,25,14,25,0.00
2012-11-9,55.1,49.3,43.3,46.8,39.7,33.1,91,70,54,30.24,30.01,25,9,25,0.00
2012-11-10,62.1,52.5,43.9,52.1,46.0,37.5,96,80,45,30.39,30.24,6,1,6,0.00
2012-11-11,64.9,58.5,49.5,57.2,53.0,47.2,94,82,66,30.48,30.38,10,2,10,0.01
2012-11-12,73.7,63.7,57.0,64.5,60.0,55.1,95,88,72,30.43,30.20,13,2,13,0.00
2012-11-13,69.3,58.9,49.7,65.7,57.1,48.2,96,94,79,30.30,30.15,31,9,31,0.01
2012-11-14,52.9,51.4,49.7,51.2,48.8,45.8,96,91,82,30.35,30.26,31,17,31,0.00
2012-11-15,56.6,53.2,48.8,53.9,50.5,45.8,94,91,82,30.26,30.13,27,14,27,0.06
2012-11-16,54.1,52.0,50.4,52.1,49.0,46.5,95,90,84,30.30,30.11,27,15,27,0.06
2012-11-17,56.7,54.7,51.1,53.8,51.4,46.9,92,89,82,30.34,30.27,30,15,30,0.00
2012-11-18,58.0,57.3,56.4,56.2,55.1,53.7,95,92,90,30.30,30.14,32,17,32,0.08
2012-11-19,58.9,56.9,53.6,57.0,55.3,52.5,97,94,92,30.14,30.00,31,20,31,0.02
2012-11-20,56.9,54.6,53.0,54.6,52.5,49.9,97,93,87,30.05,29.98,28,16,28,0.00
2012-11-21,55.1,53.4,52.7,52.7,51.2,50.1,93,92,91,30.04,29.97,25,14,25,0.00
2012-11-22,56.6,54.5,52.6,53.3,51.8,50.0,93,91,88,30.09,30.02,28,17,28,0.00
2012-11-23,57.9,52.2,47.8,53.0,50.2,47.0,98,93,81,30.09,29.82,19,7,19,0.00
2012-11-24,55.9,50.4,45.8,52.3,40.2,31.4,88,68,55,30.05,29.79,28,13,28,0.00
2012-11-25,50.7,45.0,41.1,42.3,34.5,30.8,76,67,53,30.16,30.04,21,7,21,0.00
2012-11-26,58.9,51.8,47.9,48.8,45.1,39.3,93,78,53,30.21,30.08,16,3,16,0.00
2012-11-27,63.5,50.6,49.7,50.7,35.4,-99.9,94,71,53,30.19,30.04,16,-84,16,0.03
2012-11-28,51.7,47.4,45.0,49.2,40.9,35.9,95,79,61,30.33,30.12,24,13,24,0.01
2012-11-29,49.4,45.0,39.5,41.6,38.1,34.8,87,77,64,30.47,30.34,11,2,11,0.01
2012-11-30,53.9,47.1,39.4,46.1,40.9,36.1,93,80,59,30.40,30.30,11,1,11,0.00
2012-12-1,59.4,50.4,44.4,49.1,44.8,38.0,97,82,47,30.39,30.31,9,1,9,0.01
2012-12-2,62.2,53.9,45.1,53.0,48.6,43.1,96,83,61,30.40,30.25,9,1,9,0.01
2012-12-3,65.2,59.8,57.3,60.0,56.9,53.1,95,90,81,30.28,30.20,13,3,13,0.00
2012-12-4,68.3,59.9,55.8,61.7,57.4,54.1,95,92,78,30.33,30.18,12,2,12,0.01
2012-12-5,64.0,58.8,54.6,58.8,55.1,47.1,95,88,75,30.18,30.06,20,6,20,0.00
2012-12-6,54.9,51.7,49.5,48.9,45.9,42.8,89,81,75,30.27,30.16,25,12,25,0.00
2012-12-7,63.1,58.2,52.6,61.9,56.2,48.2,97,93,85,30.17,29.96,18,5,18,0.94
2012-12-8,64.4,59.9,57.1,63.5,59.1,56.3,98,97,95,30.06,29.91,11,2,11,0.01
2012-12-9,68.3,61.4,55.1,63.6,57.9,54.3,98,89,68,30.16,30.01,12,1,12,0.02
2012-12-10,67.1,63.5,60.6,66.2,62.5,60.0,99,97,92,30.01,29.76,23,6,23,0.51
2012-12-11,66.4,60.9,54.4,65.6,59.4,52.1,98,95,89,30.09,29.74,22,7,22,0.69
2012-12-12,55.0,53.2,50.4,52.8,51.3,48.5,95,93,90,30.22,30.07,36,18,36,0.51
2012-12-13,54.9,52.5,50.6,51.8,49.5,47.3,94,90,82,30.25,30.09,37,20,37,1.17
2012-12-14,53.7,50.5,45.7,49.4,47.3,43.3,95,89,80,30.31,30.20,24,9,24,0.00
2012-12-15,57.7,51.9,43.3,55.8,48.3,41.4,95,88,82,30.25,30.08,14,4,14,0.00
2012-12-16,64.0,59.3,55.4,61.0,57.9,54.6,98,95,86,30.08,29.88,16,2,16,0.03
2012-12-17,62.4,58.8,57.0,62.1,58.2,56.4,99,98,96,29.88,29.62,21,3,21,0.28
2012-12-18,62.6,58.4,54.1,60.4,54.7,42.2,98,88,64,29.87,29.61,26,9,26,0.01
2012-12-19,58.1,53.6,48.5,50.2,46.2,40.9,93,76,64,30.12,29.85,21,6,22,0.01
2012-12-20,67.5,58.2,50.5,61.5,52.8,44.9,88,82,75,30.16,29.60,27,7,27,0.00
2012-12-21,67.5,52.0,43.7,64.2,42.3,30.1,95,70,56,29.73,29.41,40,19,40,0.50
2012-12-22,48.6,45.0,41.4,38.9,33.2,29.5,75,63,51,30.07,29.73,40,18,40,0.00
2012-12-23,50.9,47.3,43.7,44.7,35.3,26.4,84,63,49,30.15,30.02,17,6,17,0.00
2012-12-24,60.0,53.5,47.4,50.1,45.2,40.8,85,74,58,30.08,29.90,21,4,21,0.03
2012-12-25,53.5,51.4,50.3,49.1,47.9,46.7,92,88,81,30.10,29.91,21,7,21,0.03
2012-12-26,67.7,60.0,51.8,64.8,57.2,48.7,97,91,80,30.07,29.42,41,12,41,1.52
2012-12-27,53.7,48.4,45.5,49.0,40.6,36.3,85,74,66,30.02,29.54,35,17,35,1.52
2012-12-28,46.1,42.9,40.3,40.6,36.0,33.8,85,77,69,30.16,30.00,20,5,20,0.00
2012-12-29,61.2,50.6,46.1,60.6,47.7,38.2,98,90,70,30.01,29.50,35,10,35,0.45
2012-12-30,47.5,44.6,42.4,38.5,32.5,27.8,74,63,52,30.36,29.82,36,19,36,0.45
2012-12-31,51.9,46.2,40.8,47.5,36.0,29.0,87,68,52,30.37,30.11,20,7,20,0.00
2013-1-1,55.6,51.5,48.9,51.5,48.3,45.9,96,89,78,30.11,29.92,20,4,20,0.02